CZ-6A DEB, 60691

Orbit data source: Space-Track

CZ-6A DEB, 60691 is space debris in LEO originally from a launch on Tue, 06 Aug 2024 UTC launched from the Taiyaun Space Center, China (TSC). Debris objects in space refer to the collection of defunct objects orbiting the Earth. Examples of debris include non-operational satellites, rocket bodies, and fragments generated from explosions, collisions, or faulty payload assembly.

Loading next visibility...
Identifier
60691, 2024-140CU
Orbit
LEO
Country
Flag of CNCN / PRC
Related business
Manufacturer
SAST
Mission
Spacecraft
Bus & Motor
Unknown
Mass
Unknown
Launch date (UTC)
2024-08-06 (2 years ago)
Launch vehicle
Unknown
Launch site
Taiyaun Space Center, China (TSC)
Object type
Payload
Rocket body
Debris
Shape & HBR
Unknown shape, 0.4 m
Radar Cross Section
Medium (>0.1 m² and <1 m²)

Expand to show TLE details & history
Last TLE update: 13 hours ago

TLE from 13 hours ago
0 CZ-6A DEB
1 60691U 24140CU  26171.30245472  .00000585  00000-0  15106-3 0  9991
2 60691  89.0349 273.6963 0079135 282.3627  76.8728 14.46889109 98272
Epoch: 2026-06-20T07:15Z
TLE epoch observation values (Epoch: 2026-06-20T07:15:32.087Z)
Latitude
-0.00009°
Longitude
-103.70642°
Altitude
726.554 km
Speed
7.498 km/s
True Right ascension
18h 14m 47s
True Declination
0° 00' 00"
Sunlit
Object was in full shadow at epoch
Visualization orbit readout
Latitude
Unknown
Longitude
Unknown
Altitude
Unknown
Speed
Unknown
Apparent Right ascension
Unknown
Apparent Declination
Unknown
Sunlit
N/A
Visualization observer readout
Local Sidereal Time
07:23:59
Azimuth
Unknown
Elevation
Unknown
Doppler factor
Unknown
Orbital elements
Apogee altitude
789.011 km
Perigee altitude
676.468 km
Semi-major axis
7,110.877 km
Eccentricity
0.00791
Inclination
89.0349°
RAAN
273.6963°
Arg. of periapsis
282.3627°
True anomaly
77.75788°
Mean anomaly
76.8728°
Eccentric anomaly
77.31514°
Mean motion
3.61958 °/min
Orbital period
99.46 mins
BSTAR
0.00015106
Loading maneuver chart data...
Computing Atmospheric mass density...
Loading historical data...
Loading historical data...
Loading historical data...
Loading historical data...
Loading historical data...
Loading historical data...
Loading historical data...

Documentation

Showing up to 5 results
|